Regional Weather Roundup
Issued by NWS

Home | Current Version | Previous Version | Graphics & Text | Print | Product List | Glossary On
Versions: 1 2 3 4 5 6 7 8 9 10 11 12 13 14 15 16 17 18 19 20 21 22 23 24 25 26 27 28 29 30 31 32 33 34 35 36 37 38 39 40 41 42 43 44 45 46 47 48 49 50
231
ASUS45 KCYS 061310
RWRWY

WYOMING REGIONAL WEATHER ROUNDUP
NATIONAL WEATHER SERVICE CHEYENNE WY
700 AM MDT FRI MAY 06 2016

NOTE:  "FAIR" INDICATES FEW OR NO CLOUDS BELOW 12,000 FEET
WITH NO SIGNIFICANT WEATHER AND/OR OBSTRUCTIONS TO VISIBILITY.

WYZ001-061400-
YELLOWSTONE NATIONAL PARK

CITY           SKY/WX    TMP DP  RH WIND       PRES   REMARKS
LK YELLOWSTONE   N/A     36  31  82 CALM      30.13R
W YELLOWSTONE  NOT AVBL

$$
WYZ002>013-054>058-071-098>099-061400-
NORTHERN WYOMING

CITY           SKY/WX    TMP DP  RH WIND       PRES   REMARKS
JACKSON        CLEAR     43  36  75 CALM      30.05R
CODY           FAIR      54  37  54 N13G25    30.09R
GREYBULL       FAIR      61  40  45 W15       29.94R
WORLAND        FAIR      57  41  55 N8        29.97R
SHERIDAN       FAIR      57  43  59 NW29G40   30.05R
BUFFALO        FAIR      58  39  49 N30G40    30.01R
GILLETTE       FAIR      48  43  82 S5        29.95R
HULETT         FAIR      57  41  54 CALM      29.96R
NEWCASTLE      FAIR      55  34  44 N3        29.95R

$$
WYZ014>020-022>026-101>103-061400-
CENTRAL WYOMING

CITY           SKY/WX    TMP DP  RH WIND       PRES   REMARKS
BIG PINEY      CLOUDY    49  34  56 NE7       30.07R
PINEDALE       CLOUDY    46  32  57 E6        30.09S
DUBOIS         CLOUDY    43  32  65 NW9       30.07R
LANDER         MOCLDY    54  35  48 SW7       29.97R
RIVERTON       FAIR      53  39  59 NW12      29.98R
CASPER         FAIR      46  41  82 NE3       29.98R
DOUGLAS        FAIR      46  42  86 CALM      29.97R

$$
WYZ021-027>030-104>119-061400-
SOUTHERN WYOMING

CITY           SKY/WX    TMP DP  RH WIND       PRES   REMARKS
EVANSTON       FAIR      52  37  56 E9        29.98F
KEMMERER         N/A    N/A N/A N/A SE3       30.06R
FORT BRIDGER   MOSUNNY   50  43  76 E10       30.02F
ROCK SPRINGS   CLOUDY    52  36  54 NE3       30.04R
DIXON          CLOUDY    46  36  69 CALM      30.10R
RAWLINS        FAIR      47  35  63 CALM      30.05R
SARATOGA       FAIR      50  32  50 CALM      30.06R
LARAMIE        FAIR      44  37  76 SW8       30.07R
CHEYENNE       FAIR      46  39  76 W7        30.01S
TORRINGTON     FAIR      51  43  74 NE7       29.93R
PINE BLUFFS    FAIR      43  41  93 W3        29.99R

$$




USA.gov is the U.S. government's official web portal to all federal, state and local government web resources and services.